Retour au catalogue

NOAA 16 DEB

ActifSSO
NORAD 42382·DEBRIS·🇺🇸 United States

Lancé Sep 21, 2000 depuis Vandenberg Space Force Base

Loading…

Prochains Passages (prochaines 24 heures)

TLE

FraisSource: Space-Track

Époque: Sep 14, 2026, 05:52 UTC

1 42382U 00055SA  26257.24505404  .00003286  00000-0  12976-2 0  9991
2 42382  98.8969   1.3180 0035263 278.9935  80.7256 14.29407363541811

Suivez NOAA 16 DEB en temps réel avec AllMySat

Download on the App Store